| time (UTC) | temp C | wind direction | speed KPH | gust KPH | rain 1hr cm | rain 24hr cm | rain mn cm | humidity % | barometer mb |
| 20260506061808 | -2 | 0 | 0.0 | 0.0 | 0.10 | 0.99 | 0.03 | 89 | 1012.9 |
| 20260506060931 | -2 | 0 | 0.0 | 0.0 | 0.13 | 0.99 | 0.03 | 89 | 1012.9 |
| 20260506050908 | -2 | 0 | 0.0 | 0.0 | 0.05 | 0.86 | 0.86 | 89 | 1012.9 |
| 20260506044529 | -2 | 0 | 0.0 | 0.0 | 0.03 | 0.84 | 0.84 | 89 | 1012.9 |
| 20260506043608 | -2 | 0 | 0.0 | 0.0 | 0.00 | 0.81 | 0.81 | 89 | 1012.9 |
| 20260506042729 | -2 | 0 | 0.0 | 0.0 | 0.03 | 0.81 | 0.81 | 89 | 1012.9 |
| 20260506041808 | -2 | 0 | 0.0 | 0.0 | 0.03 | 0.81 | 0.81 | 89 | 1012.9 |
| 20260506040908 | -2 | 0 | 0.0 | 0.0 | 0.05 | 0.81 | 0.81 | 88 | 1012.9 |
| 20260506040008 | -2 | 0 | 0.0 | 0.0 | 0.05 | 0.81 | 0.81 | 88 | 1012.9 |
| 20260506035429 | -2 | 0 | 0.0 | 0.0 | 0.08 | 0.81 | 0.81 | 88 | 1012.9 |
| 20260506034508 | -2 | 0 | 0.0 | 0.0 | 0.10 | 0.81 | 0.81 | 88 | 1012.9 |
| 20260506033609 | -2 | 0 | 0.0 | 0.0 | 0.13 | 0.81 | 0.81 | 88 | 1012.9 |
| 20260506032708 | -2 | 0 | 0.0 | 0.0 | 0.13 | 0.79 | 0.79 | 88 | 1012.0 |
| 20260506031808 | -2 | 0 | 0.0 | 0.0 | 0.13 | 0.79 | 0.79 | 88 | 1012.0 |
| 20260506030908 | -2 | 0 | 0.0 | 0.0 | 0.10 | 0.79 | 0.76 | 88 | 1012.0 |
| 20260506030008 | -2 | 121 | 0.0 | 3.2 | 0.13 | 0.81 | 0.76 | 88 | 1012.0 |
| 20260506025408 | -2 | 0 | 0.0 | 0.0 | 0.10 | 0.81 | 0.74 | 88 | 1012.0 |
| 20260506024508 | -1 | 0 | 0.0 | 0.0 | 0.08 | 0.89 | 0.71 | 87 | 1012.0 |
| 20260506023629 | -1 | 0 | 0.0 | 0.0 | 0.05 | 0.97 | 0.69 | 86 | 1012.0 |
| 20260506022708 | -1 | 0 | 0.0 | 0.0 | 0.03 | 1.04 | 0.66 | 87 | 1010.9 |
| 20260506021807 | -1 | 121 | 0.0 | 1.6 | 0.03 | 1.12 | 0.66 | 86 | 1010.9 |
| 20260506020929 | -1 | 121 | 0.0 | 1.6 | 0.05 | 1.12 | 0.66 | 86 | 1010.9 |
| 20260506020029 | -1 | 121 | 0.0 | 1.6 | 0.03 | 1.09 | 0.64 | 86 | 1010.9 |
| 20260506015408 | -1 | 121 | 0.0 | 1.6 | 0.05 | 1.09 | 0.64 | 86 | 1010.9 |
| 20260506014529 | -1 | 122 | 0.0 | 3.2 | 0.05 | 1.09 | 0.64 | 86 | 1010.9 |
| 20260506013607 | 0 | 123 | 0.0 | 1.6 | 0.08 | 1.09 | 0.64 | 87 | 1010.9 |
| 20260506012707 | 0 | 0 | 0.0 | 0.0 | 0.10 | 1.09 | 0.64 | 88 | 1010.7 |
| 20260506011807 | 0 | 0 | 0.0 | 0.0 | 0.13 | 1.09 | 0.64 | 88 | 1010.7 |
| 20260506010907 | 0 | 0 | 0.0 | 0.0 | 0.13 | 1.07 | 0.61 | 88 | 1010.7 |
| 20260506010028 | 0 | 0 | 0.0 | 0.0 | 0.15 | 1.07 | 0.61 | 88 | 1010.7 |
| 20260506005408 | 0 | 123 | 0.0 | 3.2 | 0.15 | 1.04 | 0.58 | 89 | 1010.7 |
| 20260506004528 | 0 | 123 | 0.0 | 1.6 | 0.20 | 1.04 | 0.58 | 89 | 1010.7 |
| 20260506003610 | 0 | 0 | 0.0 | 0.0 | 0.23 | 1.02 | 0.56 | 89 | 1010.7 |
| 20260506002707 | 0 | 0 | 0.0 | 0.0 | 0.25 | 0.99 | 0.53 | 89 | 1010.7 |
| 20260506001808 | 0 | 0 | 0.0 | 0.0 | 0.30 | 0.97 | 0.51 | 89 | 1010.7 |
| 20260506000910 | 0 | 123 | 0.0 | 1.6 | 0.33 | 0.94 | 0.48 | 89 | 1010.7 |
| 20260506000007 | 0 | 123 | 0.0 | 1.6 | 0.38 | 0.91 | 0.46 | 89 | 1010.7 |
| 20260505235428 | 0 | 123 | 0.0 | 1.6 | 0.36 | 0.89 | 0.43 | 89 | 1010.7 |
| 20260505234509 | 0 | 0 | 0.0 | 0.0 | 0.33 | 0.84 | 0.38 | 89 | 1010.7 |
| 20260505233613 | 0 | 0 | 0.0 | 0.0 | 0.30 | 0.79 | 0.33 | 89 | 1010.7 |
| 20260505232712 | 0 | 0 | 0.0 | 0.0 | 0.25 | 0.74 | 0.28 | 89 | 1010.4 |
| 20260505231812 | 0 | 0 | 0.0 | 0.0 | 0.18 | 0.66 | 0.20 | 89 | 1010.4 |
| 20260505230913 | 0 | 123 | 0.0 | 1.6 | 0.13 | 0.61 | 0.15 | 88 | 1010.4 |
| 20260505230012 | 0 | 0 | 0.0 | 0.0 | 0.08 | 0.53 | 0.08 | 88 | 1010.4 |
| 20260505225412 | 0 | 0 | 0.0 | 0.0 | 0.08 | 0.53 | 0.08 | 88 | 1010.4 |
| 20260505224512 | 0 | 123 | 0.0 | 1.6 | 0.05 | 0.51 | 0.05 | 87 | 1010.4 |
| 20260505223633 | 0 | 127 | 0.0 | 4.8 | 0.03 | 0.48 | 0.03 | 87 | 1010.4 |
| 20260505222712 | 0 | 157 | 0.0 | 6.4 | 0.03 | 0.48 | 0.03 | 87 | 1010.8 |
| 20260505221812 | 0 | 0 | 0.0 | 0.0 | 0.03 | 0.48 | 0.03 | 87 | 1010.8 |
| 20260505220912 | 0 | 182 | 0.0 | 1.6 | 0.03 | 0.48 | 0.03 | 86 | 1010.8 |
| 20260505220033 | 0 | 181 | 0.0 | 3.2 | 0.00 | 0.46 | 0.00 | 85 | 1010.8 |
| 20260505215412 | 0 | 127 | 0.0 | 6.4 | 0.00 | 0.46 | 0.00 | 84 | 1010.8 |
| 20260505214511 | 1 | 163 | 1.6 | 4.8 | 0.00 | 0.46 | 0.00 | 83 | 1010.8 |
| 20260505213611 | 1 | 88 | 1.6 | 6.4 | 0.00 | 0.46 | 0.00 | 79 | 1010.8 |
| 20260505212711 | 2 | 114 | 1.6 | 8.0 | 0.00 | 0.46 | 0.00 | 80 | 1010.8 |
| 20260505211812 | 2 | 101 | 4.8 | 11.3 | 0.00 | 0.46 | 0.00 | 81 | 1010.8 |
| 20260505210912 | 2 | 89 | 1.6 | 9.7 | 0.00 | 0.46 | 0.00 | 83 | 1010.8 |
| 20260505210012 | 1 | 81 | 1.6 | 6.4 | 0.00 | 0.46 | 0.00 | 81 | 1010.8 |
| 20260505205413 | 1 | 79 | 1.6 | 6.4 | 0.00 | 0.46 | 0.00 | 80 | 1010.8 |
| 20260505204511 | 1 | 93 | 1.6 | 8.0 | 0.00 | 0.46 | 0.00 | 82 | 1010.8 |
| 20260505203611 | 1 | 107 | 3.2 | 12.9 | 0.00 | 0.46 | 0.00 | 78 | 1010.8 |
| 20260505202711 | 2 | 97 | 6.4 | 14.5 | 0.00 | 0.46 | 0.00 | 77 | 1010.8 |
| 20260505201812 | 2 | 92 | 4.8 | 12.9 | 0.00 | 0.46 | 0.00 | 78 | 1010.8 |
| 20260505200911 | 2 | 168 | 3.2 | 12.9 | 0.00 | 0.46 | 0.00 | 80 | 1010.8 |
| 20260505200024 | 2 | 134 | 1.6 | 6.4 | 0.00 | 0.46 | 0.00 | 78 | 1010.8 |
| 20260505195413 | 2 | 103 | 3.2 | 11.3 | 0.00 | 0.46 | 0.00 | 81 | 1010.8 |
| 20260505194532 | 2 | 100 | 4.8 | 14.5 | 0.00 | 0.46 | 0.00 | 82 | 1010.8 |
| 20260505193611 | 2 | 106 | 3.2 | 11.3 | 0.00 | 0.46 | 0.00 | 79 | 1010.8 |
| 20260505192732 | 2 | 94 | 3.2 | 11.3 | 0.00 | 0.46 | 0.00 | 78 | 1011.3 |
| 20260505191812 | 2 | 104 | 4.8 | 11.3 | 0.00 | 0.46 | 0.00 | 78 | 1011.3 |
| 20260505190932 | 2 | 104 | 4.8 | 11.3 | 0.00 | 0.46 | 0.00 | 79 | 1011.3 |
| 20260505190012 | 2 | 95 | 3.2 | 9.7 | 0.00 | 0.46 | 0.00 | 80 | 1011.3 |
| 20260505185411 | 2 | 101 | 6.4 | 14.5 | 0.00 | 0.46 | 0.00 | 80 | 1011.3 |
| 20260505184512 | 2 | 99 | 8.0 | 14.5 | 0.00 | 0.46 | 0.00 | 80 | 1011.3 |
| 20260505183632 | 2 | 97 | 4.8 | 14.5 | 0.00 | 0.46 | 0.00 | 78 | 1011.3 |
| 20260505182714 | 2 | 105 | 6.4 | 16.1 | 0.00 | 0.46 | 0.00 | 80 | 1011.9 |
| 20260505181811 | 2 | 96 | 3.2 | 11.3 | 0.00 | 0.46 | 0.00 | 81 | 1011.9 |
| 20260505180911 | 1 | 102 | 3.2 | 9.7 | 0.00 | 0.46 | 0.00 | 81 | 1011.9 |
| 20260505180011 | 2 | 97 | 3.2 | 12.9 | 0.00 | 0.46 | 0.00 | 80 | 1011.9 |
| 20260505175411 | 1 | 102 | 3.2 | 9.7 | 0.00 | 0.46 | 0.00 | 82 | 1011.9 |
| 20260505174532 | 1 | 111 | 3.2 | 11.3 | 0.00 | 0.46 | 0.00 | 82 | 1011.9 |
| 20260505173611 | 1 | 111 | 3.2 | 11.3 | 0.00 | 0.46 | 0.00 | 83 | 1011.9 |
| 20260505172711 | 1 | 134 | 1.6 | 6.4 | 0.00 | 0.46 | 0.00 | 83 | 1012.3 |
| 20260505171811 | 1 | 87 | 3.2 | 9.7 | 0.00 | 0.46 | 0.00 | 82 | 1012.3 |
| 20260505170911 | 1 | 107 | 4.8 | 11.3 | 0.00 | 0.46 | 0.00 | 82 | 1012.3 |
| 20260505170011 | 1 | 97 | 3.2 | 8.0 | 0.00 | 0.46 | 0.00 | 84 | 1012.3 |
| 20260505165432 | 1 | 94 | 3.2 | 14.5 | 0.00 | 0.46 | 0.00 | 84 | 1012.3 |
| 20260505164511 | 1 | 96 | 4.8 | 9.7 | 0.00 | 0.46 | 0.00 | 82 | 1012.3 |
| 20260505163611 | 1 | 98 | 1.6 | 11.3 | 0.00 | 0.46 | 0.00 | 82 | 1012.3 |
| 20260505162735 | 1 | 89 | 0.0 | 4.8 | 0.00 | 0.46 | 0.00 | 83 | 1012.5 |
| 20260505161811 | 1 | 81 | 1.6 | 6.4 | 0.00 | 0.46 | 0.00 | 84 | 1012.5 |
| 20260505160910 | 1 | 83 | 1.6 | 6.4 | 0.00 | 0.46 | 0.00 | 84 | 1012.5 |
| 20260505152710 | 1 | 98 | 1.6 | 6.4 | 0.00 | 0.46 | 0.00 | 87 | 1012.9 |
| 20260505151810 | 0 | 100 | 0.0 | 6.4 | 0.00 | 0.46 | 0.00 | 87 | 1012.9 |
| 20260505150910 | 1 | 103 | 1.6 | 6.4 | 0.00 | 0.46 | 0.00 | 87 | 1012.9 |
| 20260505124510 | 1 | 166 | 0.0 | 4.8 | 0.00 | 0.46 | 0.00 | 89 | 1011.8 |
| 20260505123610 | 1 | 133 | 1.6 | 11.3 | 0.00 | 0.46 | 0.00 | 89 | 1011.8 |
| 20260505122709 | 1 | 71 | 0.0 | 4.8 | 0.00 | 0.46 | 0.00 | 89 | 1011.3 |
| 20260505121810 | 2 | 0 | 0.0 | 0.0 | 0.00 | 0.46 | 0.00 | 88 | 1011.3 |
| 20260505120910 | 2 | 106 | 0.0 | 4.8 | 0.00 | 0.46 | 0.00 | 88 | 1011.3 |
| 20260505120010 | 2 | 144 | 0.0 | 1.6 | 0.00 | 0.46 | 0.00 | 86 | 1011.3 |
| 20260505115410 | 2 | 144 | 0.0 | 1.6 | 0.00 | 0.46 | 0.00 | 86 | 1011.3 |
| 20260505114509 | 2 | 234 | 0.0 | 1.6 | 0.00 | 0.46 | 0.00 | 85 | 1011.3 |
| 20260505113610 | 2 | 234 | 0.0 | 3.2 | 0.00 | 0.46 | 0.00 | 85 | 1011.3 |
| 20260505112713 | 2 | 234 | 0.0 | 3.2 | 0.00 | 0.46 | 0.00 | 85 | 1011.3 |
| 20260505111810 | 2 | 0 | 0.0 | 0.0 | 0.00 | 0.46 | 0.00 | 85 | 1011.3 |
| 20260505110909 | 2 | 0 | 0.0 | 0.0 | 0.00 | 0.46 | 0.00 | 86 | 1011.3 |
| 20260505101809 | 2 | 0 | 0.0 | 0.0 | 0.00 | 0.46 | 0.00 | 87 | 1011.3 |
| 20260505100909 | 2 | 0 | 0.0 | 0.0 | 0.00 | 0.46 | 0.00 | 87 | 1011.3 |
| 20260505100010 | 2 | 0 | 0.0 | 0.0 | 0.00 | 0.46 | 0.00 | 87 | 1011.7 |
| 20260505095409 | 2 | 0 | 0.0 | 0.0 | 0.00 | 0.46 | 0.00 | 87 | 1011.7 |
| 20260505094509 | 2 | 0 | 0.0 | 0.0 | 0.00 | 0.46 | 0.00 | 88 | 1011.7 |
| 20260505093609 | 2 | 0 | 0.0 | 0.0 | 0.00 | 0.46 | 0.00 | 88 | 1011.7 |
| 20260505092709 | 2 | 0 | 0.0 | 0.0 | 0.00 | 0.46 | 0.00 | 88 | 1012.5 |
| 20260505091809 | 2 | 0 | 0.0 | 0.0 | 0.00 | 0.46 | 0.00 | 88 | 1012.5 |
| 20260505090909 | 2 | 0 | 0.0 | 0.0 | 0.00 | 0.46 | 0.00 | 88 | 1012.5 |
| 20260505090018 | 2 | 0 | 0.0 | 0.0 | 0.00 | 0.46 | 0.00 | 88 | 1012.5 |
| 20260505085409 | 2 | 0 | 0.0 | 0.0 | 0.00 | 0.46 | 0.00 | 88 | 1012.5 |
| 20260505084509 | 2 | 0 | 0.0 | 0.0 | 0.00 | 0.46 | 0.00 | 88 | 1012.5 |
| 20260505083609 | 2 | 0 | 0.0 | 0.0 | 0.00 | 0.46 | 0.00 | 88 | 1012.5 |
| 20260505082709 | 2 | 0 | 0.0 | 0.0 | 0.00 | 0.46 | 0.00 | 88 | 1012.5 |
| 20260505081830 | 2 | 0 | 0.0 | 0.0 | 0.00 | 0.46 | 0.00 | 88 | 1012.5 |
| 20260505080909 | 2 | 0 | 0.0 | 0.0 | 0.00 | 0.46 | 0.00 | 88 | 1012.5 |
| 20260505080011 | 2 | 0 | 0.0 | 0.0 | 0.00 | 0.46 | 0.00 | 88 | 1012.5 |
| 20260505075409 | 2 | 0 | 0.0 | 0.0 | 0.00 | 0.46 | 0.00 | 88 | 1012.5 |
| 20260505074509 | 2 | 0 | 0.0 | 0.0 | 0.00 | 0.46 | 0.00 | 88 | 1012.5 |
| 20260505073629 | 2 | 0 | 0.0 | 0.0 | 0.00 | 0.46 | 0.00 | 88 | 1012.5 |
| 20260505072709 | 2 | 0 | 0.0 | 0.0 | 0.00 | 0.46 | 0.00 | 88 | 1012.5 |
| 20260505071809 | 2 | 0 | 0.0 | 0.0 | 0.00 | 0.46 | 0.00 | 88 | 1012.5 |
| 20260505070909 | 2 | 0 | 0.0 | 0.0 | 0.00 | 0.46 | 0.00 | 88 | 1012.5 |